sat.trackr.live / text

‹ back to catalog

BRO-16

NORAD 62654 · 2025-009AX

PAYLOAD ACTIVE UNKNOWN

§ Identity

Operator
Country
FR
Launch date
2025-01-14
Launch site
AFWTR
Launch vehicle
Mass (kg)
RCS (m²)

External: N2YO · Heavens-Above · Gunter

§ Orbital elements

Epoch: 2026-09-22T19:53:17.591712Z

Period
94.45 min
Inclination
97.3999°
Eccentricity
0.0001326
Mean motion
15.24543312 rev/d
Perigee alt
491.2 km
Apogee alt
493.1 km
Semi-major
6,870.3 km
B*
1.0460e-4
RAAN
345.1151°
Arg perigee
20.5420°
Mean anomaly
339.5871°
Rev number
9,367

§ Raw data

BRO-161 62654U 25009AX  26265.82867583  .00002503  00000+0  10460-3 0  99902 62654  97.3999 345.1151 0001326  20.5420 339.5871 15.24543312 93677

JSON: /api/v1/satellites/62654 · /tle

For live sub-satellite position, see the globe view (requires WebGL).

§ Visibility from observer

Set your observer location to see the next 7 days of passes ≥ 10°. The values pass through the URL so the page stays shareable.

No JS? Fill the form by hand. The geolocation button needs JavaScript.

§ Radio — SatNOGS DB

ModeDescriptionDownlinkUplink
FM Telemetry 401.850 MHz

1 transmitter · refreshed weekly from db.satnogs.org